{"data":{"norad_id":48694,"epoch":"2026-09-19T11:55:38.271072Z","epoch_age_seconds":127873,"freshness":"FRESH","line1":"1 48694U 21044BJ  26262.49697073  .00000396  00000+0  24513-4 0  9991","line2":"2 48694  53.1599 256.5372 0001359  87.3962 272.7195 15.31705148294012","mean_motion":15.31705148,"eccentricity":0.0001359,"inclination_deg":53.1599,"raan_deg":256.5372,"arg_perigee_deg":87.3962,"mean_anomaly_deg":272.7195,"bstar":2.4513e-5,"rev_number":29401,"period_min":94.012871986508,"perigee_km":469.79388905036,"apogee_km":471.65540964666,"semimajor_km":6848.8616493485,"source":"CELESTRAK","updated_at":"2026-09-20T09:00:39.245728Z"}}